Retour au catalogue

FENGYUN 1C DEB

ActifSSO
NORAD 31429·DEBRIS·🇨🇳 China

Lancé May 10, 1999 depuis Taiyuan Satellite Launch Center

Loading…

Prochains Passages (prochaines 24 heures)

TLE

FraisSource: Space-Track

Époque: Sep 14, 2026, 15:21 UTC

1 31429U 99025BTR 26257.64005581  .00001168  00000-0  53178-3 0  9998
2 31429  98.6621 307.5269 0013237 348.0015 163.6820 14.23555483998778

Suivez FENGYUN 1C DEB en temps réel avec AllMySat

Download on the App Store